Location: Antioch Baptist Church
(32.6696°N, 85.7327°W)
Time: 20:26:43
(UTC+00:00)

Cosmos 1484 Rocket - Pass Details

Date: 14 July 2020
Orbit: 505 x 560 km, 97.4° (Epoch: 13 August)

Event Time Altitude Azimuth Distance (km) Brightness Sun altitude
Rises 09:59:49 0° 19° (NNE) 2,678 7.3 -9.2°
Reaches altitude 10° 10:02:02 10° 26° (NNE) 1,775 6.4 -8.8°
Maximum altitude 10:05:41 42° 99° (E) 749 4.0 -8.2°
Drops below altitude 10° 10:09:14 10° 171° (S) 1,734 5.1 -7.5°
Sets 10:11:23 0° 178° (S) 2,608 6.0 -7.2°
